817  
ASUS42 KRAH 051310  
RWRRAH  
NORTH CAROLINA WEATHER ROUNDUP  
NATIONAL WEATHER SERVICE RALEIGH NC  
900 AM EDT FRI JUN 05 2020  
 
NOTE: "FAIR" INDICATES FEW OR NO CLOUDS BELOW 12,000 FEET WITH NO  
SIGNIFICANT WEATHER AND/OR S TO VISIBILITY
.  
 
NCZ001-053-055-056-065-067-051400-  
WESTERN NORTH CAROLINA  
 
CITY SKY/WX TMP DP RH WIND PRES REMARKS
 
ASHEVILLE MOSUNNY 71 65 81 CALM 30.03R  
JEFFERSON NOT AVBL  
HICKORY PTSUNNY 70 65 84 S5 29.99R  
WILKESBORO NOT AVBL  
RUTHERFORDTON NOT AVBL  
MOUNT AIRY PTSUNNY 71 67 87 SW3 30.01S  
BOONE N/A 65 63 96 CALM 30.06S  

 
 
NCZ021-022-025-041-071-084-088-051400-  
CENTRAL NORTH CAROLINA  
 
CITY SKY/WX TMP DP RH WIND PRES REMARKS
 
CHARLOTTE CLOUDY 71 66 84 SW12 30.00R  
GREENSBORO PTSUNNY 72 66 81 SW8 29.98S  
WINSTON-SALEM CLOUDY 71 65 81 S3 30.00S  
RALEIGH-DURHAM LGT RAIN 74 71 91 S7 29.99S  
FORT BRAGG LGT RAIN 73 73 100 S9 29.98S  
FAYETTEVILLE CLOUDY 76 70 82 S12 29.99R  
BURLINGTON MOSUNNY 73 67 81 S6 29.99R  
ROXBORO NOT AVBL  
HENDERSON NOT AVBL  
LOUISBURG NOT AVBL  
LAURINBURG CLOUDY 74 71 91 W7 30.00R  

 
 
NCZ011-015-027-028-043-044-047-080-103-051400-  
NORTHEASTERN NORTH CAROLINA  
 
CITY SKY/WX TMP DP RH WIND PRES REMARKS
 
ROCKY MT-WILSO N/A N/A N/A N/A MISG 30.00R  
GREENVILLE NOT AVBL  
ELIZABETH CITY CLOUDY 79 72 79 S8 30.03R  
MANTEO PTSUNNY 77 73 87 S10 30.05R  
CAPE HATTERAS PTSUNNY 80 75 84 S8 30.06R  

 
 
NCZ078-087-090-091-093-098-101-051400-  
SOUTHEASTERN NORTH CAROLINA  
 
CITY SKY/WX TMP DP RH WIND PRES REMARKS
 
GOLDSBORO LGT RAIN 77 70 78 S8 29.99R  
KINSTON MOSUNNY 79 70 73 S12 30.02R  
KENANSVILLE NOT AVBL  
NEW BERN PTSUNNY 78 70 76 S9 30.04R  
CHERRY POINT PTSUNNY 79 67 66 SW7 30.05R  
BEAUFORT CLOUDY 78 75 90 SE12 30.04R  
JACKSONVILLE PTSUNNY 77 68 73 S10 30.02S  
WILMINGTON MOSUNNY 76 72 87 SE6 30.03R  

 
 
 
 
CLICK HERE TO GO TO PREVIOUS BULLETINS.

The Nexlab NC Page Main Text Page